Погода в Абхе

Саудовская Аравия     18°17′32″N   42°46′04″E
темп.,
°C
ветер,
м/с
пор.,
м/с
влажн.,
%
обл.,
%
осадки,
мм/ч
давл.,
гПа
погр.,
м
24 мая, вт
вт2400:00+22ююв11390 0.0 101211
03:00+21св11370 0.0 101111
06:00+20всв22370 0.0 101211
09:00+26ю34135 0.0 10122204
12:00+29в2495 0.0 10093635
15:00+30юз461712 0.0 10083675
18:00+26юз64410 0.0 10101044
21:00+23ююз22570 0.0 1013302
25 мая, ср
ср2500:00+22ююв11590 0.0 101320
03:00+21юз01540 0.0 101211
06:00+21всв22431 0.0 101311
09:00+27всв341037 0.0 10131956
12:00+29ююв341099 0.0 10123616
15:00+31ююз351367 0.0 10094014
18:00+27юз533132 0.0 10111076
21:00+24ю34466 0.0 1014421
26 мая, чт
чт2600:00+23ю243914 0.1 101485
03:00+21ююв01520 0.1 101411
06:00+21вюв34210 0.0 101438
09:00+26юв43120 0.0 10141390
12:00+29юв13110 0.0 10123666
15:00+30юв25125 0.0 10094027
18:00+27ююз43290 0.0 10111459
21:00+23ю33430 0.1 1014249
27 мая, пт
пт2700:00+23ю23440 0.0 1013114
03:00+21ююв11400 0.0 101211
06:00+20вюв01320 0.0 101311
09:00+26ю23150 0.0 10131711
12:00+29ююз34124 0.0 10113803
15:00+29юз862365 0.0 10092369
18:00+25юз65408 0.0 1011974
21:00+23ю444745 0.0 1013310
28 мая, сб
сб2800:00+22ююз11412 0.3 101343
03:00+21ююв01430 0.3 101211
06:00+20вюв01400 0.0 101311
09:00+27ююв34150 0.0 10122443
12:00+29ююз45135 0.0 10104033
15:00+28юз862679 0.0 10092361
18:00+25юз65375 0.0 10111087
21:00+22ююз34445 0.0 1014280